TVF78UV LFPO-LFMN

Flight info

Callsign TVF78UV
Flight time 1h 8m
Altitude 35000
Route LATRA DCT LAMUT DCT UTUVA DCT LERGA DCT LIQID DCT LATAM DCT TUNUR DCT NISAR
Aircraft A320/M-SDE3FGHIRWY/LB1

Departure

Time 2026-04-30 21:12
Airport Paris-Orly Airport (LFPO)

Arrival

Time 2026-04-30 22:21
Airport Nice-Côte d'Azur Airport (LFMN)
Time Latitude Longitude Altitude Speed Heading
2026-04-30 20:58 48.72616 2.36364 302 ft 0 kts 348°
2026-04-30 21:04 48.72615 2.36364 297 ft 1 kts 348°
2026-04-30 21:05 48.72592 2.36371 302 ft 4 kts 349°
2026-04-30 21:05 48.72570 2.36377 302 ft 4 kts 347°
2026-04-30 21:05 48.72548 2.36393 302 ft 4 kts 306°
2026-04-30 21:05 48.72542 2.36425 299 ft 3 kts 255°
2026-04-30 21:06 48.72547 2.36452 301 ft 0 kts 255°
2026-04-30 21:08 48.72541 2.36421 298 ft 6 kts 255°
2026-04-30 21:08 48.72527 2.36341 299 ft 8 kts 255°
2026-04-30 21:08 48.72511 2.36251 298 ft 9 kts 255°
2026-04-30 21:09 48.72494 2.36157 299 ft 9 kts 255°
2026-04-30 21:09 48.72472 2.36033 299 ft 14 kts 256°
2026-04-30 21:09 48.72473 2.35889 296 ft 14 kts 275°
2026-04-30 21:09 48.72472 2.35741 298 ft 13 kts 260°
2026-04-30 21:10 48.72435 2.35629 298 ft 11 kts 210°
2026-04-30 21:10 48.72365 2.35636 296 ft 10 kts 170°
2026-04-30 21:10 48.72282 2.35613 301 ft 15 kts 196°
2026-04-30 21:10 48.72188 2.35616 297 ft 13 kts 168°
2026-04-30 21:11 48.72098 2.35658 301 ft 15 kts 155°
2026-04-30 21:11 48.72014 2.35796 299 ft 20 kts 118°
2026-04-30 21:11 48.71968 2.35994 297 ft 20 kts 80°
2026-04-30 21:11 48.72033 2.36339 301 ft 66 kts 75°
2026-04-30 21:12 48.72222 2.37348 299 ft 130 kts 74°
2026-04-30 21:12 48.72496 2.38844 630 ft 156 kts 75°
2026-04-30 21:12 48.72785 2.40452 1374 ft 162 kts 77°
2026-04-30 21:12 48.73087 2.42152 2056 ft 172 kts 81°
2026-04-30 21:13 48.73419 2.44041 2349 ft 202 kts 80°
2026-04-30 21:13 48.73807 2.46247 2738 ft 231 kts 79°
2026-04-30 21:13 48.74119 2.48748 3295 ft 250 kts 87°
2026-04-30 21:13 48.74253 2.51444 4065 ft 263 kts 90°
2026-04-30 21:14 48.74325 2.54268 4894 ft 274 kts 90°
2026-04-30 21:14 48.74170 2.57178 5724 ft 280 kts 109°
2026-04-30 21:14 48.73168 2.59635 6692 ft 276 kts 142°
2026-04-30 21:14 48.71477 2.60937 7581 ft 273 kts 167°
2026-04-30 21:15 48.69596 2.61455 8487 ft 278 kts 172°
2026-04-30 21:15 48.67667 2.61827 9417 ft 282 kts 172°
2026-04-30 21:15 48.65699 2.62030 10346 ft 285 kts 181°
2026-04-30 21:15 48.63716 2.61690 11192 ft 291 kts 189°
2026-04-30 21:16 48.61699 2.60785 11568 ft 316 kts 202°
2026-04-30 21:16 48.59641 2.59290 11850 ft 340 kts 204°
2026-04-30 21:16 48.58224 2.58222 12138 ft 350 kts 204°
2026-04-30 21:16 48.56027 2.56537 12824 ft 357 kts 205°
2026-04-30 21:17 48.53799 2.54811 13598 ft 362 kts 205°
2026-04-30 21:17 48.50809 2.52487 14531 ft 367 kts 205°
2026-04-30 21:17 48.49266 2.51292 15004 ft 370 kts 205°
2026-04-30 21:17 48.46962 2.49518 15678 ft 373 kts 203°
2026-04-30 21:18 48.44540 2.48106 16336 ft 375 kts 194°
2026-04-30 21:18 48.42031 2.46969 17003 ft 378 kts 194°
2026-04-30 21:18 48.39530 2.45835 17674 ft 382 kts 194°
2026-04-30 21:18 48.36928 2.45079 18313 ft 381 kts 179°
2026-04-30 21:19 48.34309 2.45513 18870 ft 380 kts 163°
2026-04-30 21:19 48.31764 2.46612 19441 ft 382 kts 161°
2026-04-30 21:19 48.29204 2.47744 20014 ft 384 kts 161°
2026-04-30 21:19 48.26637 2.48889 20592 ft 387 kts 161°
2026-04-30 21:20 48.24049 2.50046 21152 ft 389 kts 161°
2026-04-30 21:20 48.21443 2.51207 21693 ft 392 kts 161°
2026-04-30 21:20 48.18814 2.52368 22245 ft 395 kts 162°
2026-04-30 21:20 48.16166 2.53532 22777 ft 398 kts 162°
2026-04-30 21:21 48.13504 2.54700 23303 ft 400 kts 162°
2026-04-30 21:21 48.10822 2.55872 23793 ft 403 kts 162°
2026-04-30 21:21 48.05396 2.58249 24618 ft 409 kts 162°
2026-04-30 21:22 48.02655 2.59450 25038 ft 411 kts 162°
2026-04-30 21:22 47.94398 2.63058 26271 ft 417 kts 162°
2026-04-30 21:23 47.91606 2.64276 26672 ft 419 kts 162°
2026-04-30 21:23 47.88792 2.65502 27073 ft 422 kts 162°
2026-04-30 21:23 47.83132 2.67963 27844 ft 426 kts 162°
2026-04-30 21:24 47.80272 2.69203 28216 ft 428 kts 162°
2026-04-30 21:24 47.77402 2.70447 28573 ft 430 kts 162°
2026-04-30 21:24 47.74514 2.71698 28885 ft 434 kts 162°
2026-04-30 21:24 47.71612 2.72953 29201 ft 436 kts 162°
2026-04-30 21:25 47.65747 2.75480 29861 ft 441 kts 162°
2026-04-30 21:25 47.62793 2.76752 30178 ft 443 kts 162°
2026-04-30 21:25 47.59826 2.78027 30517 ft 443 kts 162°
2026-04-30 21:26 47.53948 2.80549 31259 ft 443 kts 162°
2026-04-30 21:26 47.50986 2.81822 31565 ft 444 kts 162°
2026-04-30 21:27 47.45060 2.84365 32315 ft 443 kts 162°
2026-04-30 21:27 47.42105 2.85629 32702 ft 442 kts 162°
2026-04-30 21:27 47.39152 2.86885 33087 ft 441 kts 162°
2026-04-30 21:28 47.33267 2.89384 33841 ft 440 kts 163°
2026-04-30 21:28 47.30327 2.90634 34173 ft 440 kts 163°
2026-04-30 21:28 47.24451 2.93124 34835 ft 439 kts 163°
2026-04-30 21:29 47.21521 2.94364 35095 ft 440 kts 163°
2026-04-30 21:30 47.06803 3.00568 35182 ft 440 kts 163°
2026-04-30 21:31 46.92089 3.06586 35188 ft 440 kts 164°
2026-04-30 21:32 46.83243 3.10208 35192 ft 440 kts 164°
2026-04-30 21:32 46.77350 3.12628 35191 ft 439 kts 164°
2026-04-30 21:33 46.68519 3.16221 35187 ft 439 kts 164°
2026-04-30 21:34 46.62671 3.18586 35188 ft 439 kts 164°
2026-04-30 21:34 46.53833 3.22166 35191 ft 439 kts 164°
2026-04-30 21:35 46.47944 3.24551 35186 ft 439 kts 164°
2026-04-30 21:35 46.42054 3.26923 35186 ft 439 kts 164°
2026-04-30 21:36 46.36157 3.29291 35193 ft 440 kts 164°
2026-04-30 21:37 46.24351 3.34015 35193 ft 440 kts 164°
2026-04-30 21:37 46.18449 3.36380 35194 ft 440 kts 164°
2026-04-30 21:38 46.12547 3.38729 35195 ft 440 kts 164°
2026-04-30 21:38 46.06674 3.41061 35194 ft 441 kts 165°
2026-04-30 21:39 46.00749 3.43415 35189 ft 441 kts 165°
2026-04-30 21:39 45.94827 3.45753 35192 ft 441 kts 165°
2026-04-30 21:40 45.88900 3.48086 35203 ft 442 kts 165°
2026-04-30 21:40 45.82970 3.50470 35199 ft 443 kts 165°
2026-04-30 21:41 45.77067 3.53030 35201 ft 443 kts 163°
2026-04-30 21:41 45.71165 3.55637 35194 ft 444 kts 165°
2026-04-30 21:42 45.65281 3.58187 35190 ft 446 kts 165°
2026-04-30 21:42 45.59333 3.60728 35197 ft 447 kts 165°
2026-04-30 21:43 45.53367 3.63268 35203 ft 448 kts 165°
2026-04-30 21:43 45.47388 3.65819 35207 ft 449 kts 165°
2026-04-30 21:44 45.41407 3.68378 35208 ft 449 kts 165°
2026-04-30 21:44 45.35401 3.70925 35210 ft 450 kts 165°
2026-04-30 21:45 45.29477 3.73802 35213 ft 453 kts 155°
2026-04-30 21:45 45.24447 3.79192 35214 ft 459 kts 131°
2026-04-30 21:46 45.20405 3.86157 35205 ft 461 kts 131°
2026-04-30 21:46 45.16347 3.93214 35207 ft 462 kts 130°
2026-04-30 21:47 45.12281 4.00294 35215 ft 463 kts 131°
2026-04-30 21:47 45.08203 4.07370 35212 ft 464 kts 131°
2026-04-30 21:48 45.04107 4.14439 35221 ft 465 kts 131°
2026-04-30 21:48 45.00006 4.21517 35224 ft 465 kts 131°
2026-04-30 21:49 44.95895 4.28593 35225 ft 466 kts 131°
2026-04-30 21:49 44.91759 4.35685 35227 ft 467 kts 131°
2026-04-30 21:50 44.87617 4.42761 35215 ft 468 kts 131°
2026-04-30 21:50 44.83464 4.49852 35220 ft 469 kts 131°
2026-04-30 21:51 44.79312 4.56938 35229 ft 470 kts 131°
2026-04-30 21:51 44.75140 4.64026 35223 ft 471 kts 131°
2026-04-30 21:52 44.70954 4.71117 35225 ft 471 kts 131°
2026-04-30 21:52 44.66752 4.78213 35225 ft 472 kts 131°
2026-04-30 21:53 44.62573 4.85256 35230 ft 472 kts 131°
2026-04-30 21:53 44.58360 4.92343 35237 ft 473 kts 131°
2026-04-30 21:54 44.54132 4.99425 34970 ft 474 kts 131°
2026-04-30 21:54 44.52011 5.02971 34732 ft 474 kts 131°
2026-04-30 21:54 44.49899 5.06507 34427 ft 474 kts 131°
2026-04-30 21:55 44.47766 5.10038 33725 ft 474 kts 131°
2026-04-30 21:55 44.45596 5.13529 33468 ft 475 kts 132°
2026-04-30 21:55 44.43396 5.16993 33229 ft 476 kts 133°
2026-04-30 21:55 44.41183 5.20439 32856 ft 476 kts 133°
2026-04-30 21:56 44.38973 5.23884 32506 ft 476 kts 133°
2026-04-30 21:56 44.36649 5.27165 32143 ft 474 kts 140°
2026-04-30 21:56 44.34117 5.30029 31572 ft 474 kts 143°
2026-04-30 21:56 44.31522 5.32859 31050 ft 474 kts 143°
2026-04-30 21:57 44.28928 5.35680 30514 ft 471 kts 143°
2026-04-30 21:57 44.26340 5.38491 29946 ft 472 kts 143°
2026-04-30 21:57 44.23741 5.41314 29411 ft 474 kts 143°
2026-04-30 21:57 44.21143 5.44136 28868 ft 473 kts 143°
2026-04-30 21:58 44.18548 5.46952 28349 ft 470 kts 143°
2026-04-30 21:58 44.15982 5.49731 27828 ft 466 kts 143°
2026-04-30 21:58 44.13436 5.52491 27308 ft 461 kts 142°
2026-04-30 21:58 44.10915 5.55229 26792 ft 457 kts 142°
2026-04-30 21:59 44.08417 5.57935 26277 ft 453 kts 142°
2026-04-30 21:59 44.05936 5.60613 25773 ft 450 kts 142°
2026-04-30 21:59 44.03472 5.63271 25265 ft 446 kts 142°
2026-04-30 22:00 43.98609 5.68501 24272 ft 438 kts 142°
2026-04-30 22:00 43.93829 5.73627 23251 ft 431 kts 142°
2026-04-30 22:00 43.91463 5.76168 22765 ft 429 kts 142°
2026-04-30 22:01 43.89142 5.78658 22297 ft 426 kts 142°
2026-04-30 22:01 43.86777 5.81192 21810 ft 424 kts 142°
2026-04-30 22:01 43.84446 5.83687 21340 ft 422 kts 142°
2026-04-30 22:01 43.82158 5.86130 20863 ft 419 kts 142°
2026-04-30 22:02 43.79850 5.88591 20391 ft 417 kts 142°
2026-04-30 22:02 43.77562 5.91030 19924 ft 414 kts 142°
2026-04-30 22:02 43.75283 5.93457 19456 ft 411 kts 142°
2026-04-30 22:02 43.73024 5.95864 18996 ft 409 kts 142°
2026-04-30 22:03 43.70778 5.98253 18547 ft 406 kts 142°
2026-04-30 22:03 43.68543 6.00624 18004 ft 403 kts 142°
2026-04-30 22:03 43.66327 6.02971 17476 ft 400 kts 142°
2026-04-30 22:03 43.64119 6.05305 16948 ft 397 kts 142°
2026-04-30 22:04 43.62671 6.06842 16615 ft 395 kts 141°
2026-04-30 22:04 43.60142 6.10400 15956 ft 390 kts 127°
2026-04-30 22:04 43.57699 6.16961 14965 ft 383 kts 110°
2026-04-30 22:05 43.56762 6.20387 14487 ft 380 kts 110°
2026-04-30 22:05 43.56131 6.22684 14166 ft 378 kts 110°
2026-04-30 22:05 43.55201 6.26062 13656 ft 375 kts 110°
2026-04-30 22:05 43.54291 6.29357 13137 ft 370 kts 110°
2026-04-30 22:06 43.53378 6.32649 12619 ft 365 kts 110°
2026-04-30 22:06 43.51584 6.39097 11601 ft 352 kts 110°
2026-04-30 22:06 43.50699 6.42137 11115 ft 333 kts 116°
2026-04-30 22:07 43.49462 6.44743 10626 ft 319 kts 130°
2026-04-30 22:07 43.47972 6.46919 10159 ft 306 kts 133°
2026-04-30 22:07 43.46526 6.49001 9695 ft 294 kts 133°
2026-04-30 22:07 43.45122 6.51028 9568 ft 292 kts 132°
2026-04-30 22:08 43.43721 6.53053 9437 ft 292 kts 131°
2026-04-30 22:08 43.42317 6.55076 9307 ft 292 kts 131°
2026-04-30 22:08 43.40918 6.57091 9184 ft 290 kts 132°
2026-04-30 22:08 43.39522 6.59094 9050 ft 289 kts 131°
2026-04-30 22:09 43.38172 6.61091 8923 ft 287 kts 126°
2026-04-30 22:09 43.37268 6.63498 8793 ft 282 kts 103°
2026-04-30 22:09 43.37107 6.66148 8666 ft 278 kts 82°
2026-04-30 22:09 43.37674 6.68646 8533 ft 273 kts 60°
2026-04-30 22:10 43.38860 6.70664 8410 ft 273 kts 41°
2026-04-30 22:10 43.40311 6.72357 8283 ft 273 kts 40°
2026-04-30 22:10 43.41761 6.74042 8157 ft 271 kts 40°
2026-04-30 22:10 43.43206 6.75722 8029 ft 272 kts 40°
2026-04-30 22:11 43.45656 6.79648 7778 ft 274 kts 67°
2026-04-30 22:11 43.46089 6.82187 7549 ft 274 kts 86°
2026-04-30 22:11 43.45890 6.84780 7295 ft 273 kts 101°
2026-04-30 22:12 43.45484 6.87322 7036 ft 271 kts 100°
2026-04-30 22:12 43.45092 6.89846 6777 ft 268 kts 99°
2026-04-30 22:12 43.44707 6.92349 6518 ft 267 kts 100°
2026-04-30 22:12 43.44326 6.94841 6261 ft 265 kts 100°
2026-04-30 22:13 43.43954 6.97273 6004 ft 256 kts 100°
2026-04-30 22:13 43.43599 6.99578 5774 ft 237 kts 100°
2026-04-30 22:13 43.43266 7.01719 5542 ft 222 kts 100°
2026-04-30 22:13 43.42949 7.03767 5208 ft 215 kts 100°
2026-04-30 22:14 43.42646 7.05726 4959 ft 204 kts 100°
2026-04-30 22:14 43.42358 7.07582 4761 ft 193 kts 100°
2026-04-30 22:14 43.42205 7.09355 4581 ft 183 kts 85°
2026-04-30 22:14 43.42472 7.11062 4406 ft 184 kts 69°
2026-04-30 22:15 43.43128 7.12574 4227 ft 186 kts 51°
2026-04-30 22:15 43.44081 7.13783 4045 ft 187 kts 44°
2026-04-30 22:15 43.45060 7.14942 3880 ft 185 kts 45°
2026-04-30 22:15 43.46129 7.15933 3700 ft 189 kts 27°
2026-04-30 22:16 43.47426 7.16238 3507 ft 197 kts
2026-04-30 22:16 43.48796 7.16106 3313 ft 197 kts
2026-04-30 22:17 43.52886 7.15716 2668 ft 194 kts
2026-04-30 22:17 43.54190 7.15583 2403 ft 181 kts
2026-04-30 22:17 43.56505 7.15284 1904 ft 158 kts 359°
2026-04-30 22:18 43.57554 7.15087 1768 ft 148 kts 360°
2026-04-30 22:18 43.59574 7.14583 1581 ft 144 kts
2026-04-30 22:19 43.61427 7.15348 1445 ft 144 kts 34°
2026-04-30 22:19 43.62134 7.16349 1222 ft 146 kts 44°
2026-04-30 22:19 43.63609 7.18269 474 ft 146 kts 40°
2026-04-30 22:20 43.64315 7.19204 291 ft 135 kts 44°
2026-04-30 22:20 43.65612 7.20982 24 ft 117 kts 42°
2026-04-30 22:20 43.65982 7.21493 20 ft 54 kts 45°
2026-04-30 22:21 43.66181 7.21762 21 ft 37 kts 46°